Location: Asheville, NC
(35.6000°N, 82.5500°W)
Time: 20:13:14
(UTC-04:00)

AO-73 - Pass Details

Date: 11 March 2018
Orbit: 582 x 665 km, 97.6° (Epoch: 24 June)

Event Time Altitude Azimuth Distance (km) Brightness Sun altitude
Rises 21:35:37 0° 195° (SSW) 2,897 ? -25.2°
Reaches altitude 10° 21:38:09 10° 209° (SSW) 1,979 ? -25.7°
Maximum altitude 21:41:40 24° 264° (W) 1,259 ? -26.4°
Drops below altitude 10° 21:45:09 10° 319° (NW) 1,950 ? -27.1°
Sets 21:47:38 0° 333° (NNW) 2,844 ? -27.6°
